Regional Weather Roundup
Issued by NWS Newport/Morehead, NC

Current Version | Previous Version | Graphics & Text | Print | Product List | Glossary On
Versions: 1 2 3 4 5 6 7 8 9 10 11 12 13 14 15 16 17 18 19 20 21 22 23 24 25 26 27 28 29 30 31 32 33 34 35 36 37 38 39 40 41 42 43 44 45 46 47 48 49 50
000 ASUS42 KMHX 171710 RWRMHX WEATHER ROUNDUP FOR EASTERN NORTH CAROLINA NATIONAL WEATHER SERVICE NEWPORT/MOREHEAD CITY NC 1200 PM EST WED DEC 17 2014 NOTE: "FAIR" INDICATES FEW OR NO CLOUDS BELOW 12,000 FEET WITH NO SIGNIFICANT WEATHER AND/OR OBSTRUCTIONS TO VISIBILITY NCZ015>017-031-032-045>047-102-103-171800- NORTH COAST CITY SKY/WX TMP DP RH WIND PRES REMARKS EDENTON SUNNY 56 44 62 NW7 30.04F ELIZABETH CITY SUNNY 59 44 57 W7 30.03F KITTY HAWK SUNNY 52 44 74 W6 30.02F HAZE MANTEO SUNNY 52 41 67 NW8 30.04F $$ NCZ045>047-081-094-103-104-171800- CENTRAL COAST CITY SKY/WX TMP DP RH WIND PRES REMARKS FRISCO SUNNY 52 44 74 NW8 30.05F SWANQUARTER N/A 57 N/A N/A W9 30.00F $$ NCZ095-097-098-100-101-171800- SOUTHERN COAST CITY SKY/WX TMP DP RH WIND PRES REMARKS BEAUFORT SUNNY 59 42 53 NW9 30.06F CEDAR ISLAND N/A 54 N/A N/A W3 30.09F JACKSONVILLE SUNNY 59 40 49 NW9 30.07F PINEY ISLAND NOT AVBL WILMINGTON SUNNY 60 41 49 W9 30.10F $$ NCZ011>013-027>030-043-044-078>080-089-090>093-098-171800- COASTAL PLAIN CITY SKY/WX TMP DP RH WIND PRES REMARKS AHOSKIE SUNNY 55 42 61 CALM 30.05F CLINTON SUNNY 58 42 56 NW5 30.10F ELIZABETHTOWN SUNNY 57 40 53 NW3 30.10F GOLDSBORO SUNNY 58 45 62 NW7 30.06F GREENVILLE SUNNY 57 41 54 NW5 30.08F HAVELOCK NOT AVBL KENANSVILLE SUNNY 58 38 49 NW6 30.10F KINSTON SUNNY 57 39 51 NW7 30.08F NEW BERN SUNNY 60 41 49 N12 30.07F RICHLANDS SUNNY 57 39 51 W6 30.09F ROCKY MOUNT SUNNY 57 38 48 NW12 30.07F WASHINGTON SUNNY 57 41 55 NW7 30.06F WHITEVILLE SUNNY 58 40 52 N6 30.11F $$ AMZ130-135-150-152-154-156-158-170-250-252-270-ANZ085-086-088-633-658-670-171800- MARINE OBSERVATIONS STATION/POSITION TIME TEMP WIND PRES WAVE SWELL AIR SEA DIR/SP/G HT/PER HT/PER (UTC) (F) (DEG/KT/KT) (MB) (FT/S) (FT/S) CHESAPEAKE LIGHT 1600 47 240/ 5/ 6 1017.9 64 E VA BEACH 1700 50 54 280/ 10/ 14 1015.8 4/ 8 3/ 8 DUCK 1700 50 49 240/ 8/ 9 1016.1 2 E DUCK 1700 49 N/A 2/10 10 NE DUCK 1700 52 N/A 2/ 9 OREGON INLET 1700 52 50 290/ 6/ 9 1017.0 13E OREGON INLT 1700 53 N/A 3/ 7 HATTERAS CG 1700 50 53 310/ 7/ 8 1017.9 DIAMOND BUOY 1700 53 1017.7 4/ 8 17 S OCRACOKE NOT AVBL CAPE LOOKOUT 1700 56 330/ 6/ 7 1017.7 BEAUFORT LAB 1700 56 52 340/ 6/ 10 1016.8 30 SE NEW RIVER 1700 55 61 340/ 10/ 12 1018.9 3/ 7 3/ 7 5 SE WRIGHTSVLE 1600 55 55 350/ 6/ 8 1019.9 225 S CAPE HAT 1633 68 73 320/ 12/ 17 1018.4 8/ 8 7/ 8 41 SE CHARLESTON 1700 59 73 10/ 8/ 10 1020.0 3/ 4 2/ 6 $$

USA.gov is the U.S. government's official web portal to all federal, state and local government web resources and services.